GFSFLT2_sfc_rhum_000.txt.gz
RH
51 66 85 90 92 93 93 92 92 90 89 87 86 86 82 77 75 74 72 72 72 71 72 71 70 74 77 83 85 85 85 67
44 56 55 67 81 91 92 92 90 89 87 86 88 86 83 78 79 74 72 71 71 70 70 70 69 70 75 78 80 82 75 64
46 43 51 60 64 76 88 89 89 88 85 85 84 74 74 74 76 79 75 75 74 73 71 69 74 77 79 81 79 65 59 54
48 54 56 50 33 70 68 60 70 72 66 71 68 65 62 57 70 82 83 84 83 81 80 80 80 68 70 84 79 59 57 52
48 62 59 53 52 54 53 56 60 67 65 65 64 64 70 74 85 87 92 90 83 85 79 82 65 68 61 62 58 56 58 52
49 56 62 57 53 51 55 54 58 60 64 62 71 72 73 69 67 61 62 62 61 65 66 65 65 57 49 52 53 57 49 46
45 55 61 63 58 63 63 61 64 62 60 61 67 67 72 68 65 62 61 58 59 62 60 58 59 51 48 44 46 49 48 50
50 51 58 52 53 58 64 63 61 64 56 56 55 65 68 67 65 63 61 59 60 58 58 62 62 55 50 47 45 47 46 50
60 85 67 52 52 56 57 50 44 51 51 53 49 54 62 65 67 66 64 63 60 62 64 61 64 56 53 52 51 52 51 49
81 56 55 50 57 50 47 52 54 51 55 54 53 52 54 63 66 68 67 70 66 66 65 63 62 62 62 59 49 48 48 48
45 55 52 46 51 47 49 52 53 50 49 52 54 51 58 64 64 69 70 68 68 67 61 66 66 65 57 54 58 53 48 37
35 52 45 42 46 50 45 46 48 47 50 50 51 50 54 60 61 68 70 66 66 69 74 66 67 64 46 46 57 52 51 56
40 53 52 42 46 48 50 54 48 50 45 48 46 50 52 59 60 60 61 62 66 65 64 65 61 68 63 60 57 58 65 58
50 46 42 40 40 48 50 50 48 47 48 51 50 54 50 43 57 56 59 63 65 69 73 66 60 59 64 59 59 51 57 53
37 38 41 49 46 39 44 46 48 48 48 49 48 48 46 49 54 58 62 63 64 66 67 67 68 61 64 68 64 63 56 53
41 40 38 41 45 48 48 48 52 53 58 54 55 51 52 46 50 59 63 66 66 69 52 72 72 69 70 60 70 75 89 81
47 41 38 40 44 48 52 60 62 61 63 59 55 57 53 50 52 59 66 64 67 71 69 74 77 82 79 77 78 71 74 89
47 41 36 41 45 51 56 56 57 56 56 58 54 54 54 55 53 62 66 68 66 68 77 77 86 86 81 79 84 78 74 75
44 42 38 40 44 44 47 51 55 56 57 58 57 56 59 58 60 63 64 64 65 65 73 78 80 86 83 85 86 84 83 74
45 43 41 40 47 46 50 54 53 53 58 56 60 61 61 59 63 63 63 67 70 71 77 79 80 85 76 78 82 86 86 89

GFSFLT2_sfc_rhum_003.txt.gz
RH
96 95 93 94 95 95 95 95 94 92 91 90 89 87 85 82 78 74 72 72 71 71 71 73 72 74 82 84 84 84 90 84
86 91 90 96 96 94 94 93 92 89 88 89 88 86 81 81 80 78 75 72 70 70 72 72 72 78 80 83 86 86 77 81
70 74 79 88 94 89 92 90 90 88 87 87 90 92 84 80 83 80 78 79 79 79 79 78 79 78 79 82 83 91 78 77
59 62 77 75 55 88 94 85 92 92 89 90 91 93 91 75 81 82 81 82 84 84 84 82 81 86 76 76 91 85 73 70
64 61 59 61 67 85 88 88 94 90 83 78 78 73 82 82 93 93 96 91 96 91 91 90 86 87 72 62 60 59 67 60
63 67 61 63 59 64 67 72 77 84 80 75 82 85 76 74 73 76 85 92 96 94 89 79 83 73 65 53 49 54 62 57
62 67 70 64 62 73 69 73 70 71 76 72 73 74 73 73 73 68 67 67 67 69 69 65 67 61 55 49 44 46 49 54
60 73 72 63 62 67 70 69 68 70 70 66 64 67 75 74 71 70 67 68 68 64 62 64 66 66 58 51 45 44 46 51
80 88 85 67 58 58 68 49 51 58 60 56 58 60 62 66 72 75 74 74 71 68 68 73 74 71 69 58 52 49 48 48
80 72 82 76 61 53 57 59 56 61 62 67 61 62 66 69 67 68 76 77 74 71 72 73 73 76 69 65 62 54 49 52
76 78 80 75 54 53 58 51 53 56 61 60 52 59 60 67 69 73 75 77 78 77 75 82 81 76 62 57 62 66 59 42
71 79 82 55 51 46 62 54 56 56 53 49 46 58 58 61 61 63 66 67 71 72 73 70 74 68 52 53 72 71 75 74
60 67 54 51 63 64 63 54 53 53 50 52 50 48 46 52 58 66 68 66 68 68 76 72 68 73 72 56 68 68 65 67
55 57 57 54 62 62 57 54 52 51 50 49 53 56 54 48 61 66 64 66 64 65 66 76 73 73 76 73 76 63 65 61
44 46 46 54 53 46 47 50 53 56 61 60 59 64 57 56 60 66 66 71 69 70 74 68 77 76 74 85 94 93 83 76
46 43 40 41 49 53 56 64 70 71 70 66 67 60 57 56 57 62 71 73 73 77 64 78 84 88 87 71 86 86 95 92
50 44 42 43 44 48 63 62 66 67 68 65 60 60 58 57 60 65 72 77 73 78 83 85 90 91 90 90 88 84 79 79
44 40 41 44 45 46 56 54 57 67 64 64 62 62 64 57 57 65 69 72 75 79 86 85 88 83 79 82 85 86 93 91
48 48 42 45 51 50 50 58 59 64 62 62 58 65 62 61 69 73 74 71 76 79 85 88 90 92 91 90 92 91 89 93
50 44 43 42 49 57 59 60 65 63 52 51 57 65 66 69 71 71 71 73 78 81 87 86 84 92 91 91 91 83 93 94

GFSFLT2_sfc_rhum_009.txt.gz
RH
92 94 98 98 96 95 93 92 92 92 91 88 85 85 82 78 74 70 68 66 68 69 72 73 71 73 77 80 83 84 90 84
94 100 99 98 98 95 94 92 91 92 90 87 85 81 81 81 80 78 75 71 71 73 75 76 75 78 79 82 81 81 84 81
99 99 98 98 97 93 91 88 88 88 88 86 88 90 87 85 85 82 79 78 76 78 80 82 82 81 81 83 75 76 79 75
98 97 97 97 81 95 95 91 94 94 92 92 94 93 94 84 86 87 85 85 84 84 86 86 89 95 90 82 74 62 66 64
86 88 94 95 85 98 99 98 97 96 92 94 95 93 96 96 97 96 96 90 96 94 94 96 94 95 93 90 79 60 61 58
77 86 88 89 92 95 94 95 96 97 95 94 96 96 92 90 92 87 83 83 83 93 96 93 90 85 89 90 83 66 58 56
77 86 84 80 87 90 92 93 92 91 94 90 92 89 81 82 81 80 80 81 81 78 77 74 74 75 76 75 72 66 58 55
76 80 81 74 79 86 88 90 93 93 92 90 81 83 83 83 79 76 78 84 84 81 80 80 81 80 71 73 76 74 65 57
81 84 86 80 78 80 85 90 82 88 82 70 71 76 78 75 73 70 73 79 72 73 75 77 72 70 69 71 71 70 71 67
91 83 90 85 77 81 84 80 76 78 77 76 71 68 68 70 65 66 72 77 76 73 76 68 70 76 74 67 67 73 70 73
89 95 93 91 83 86 89 80 74 67 66 72 66 64 64 67 69 76 79 76 77 75 70 74 75 74 62 62 68 72 70 71
92 91 87 86 77 71 82 86 82 77 68 64 62 66 68 69 74 76 79 74 73 74 73 74 75 80 56 58 65 64 69 91
84 82 80 77 77 83 87 74 70 72 69 74 68 62 59 67 72 73 75 72 75 76 80 79 73 81 79 64 71 59 64 85
73 73 71 76 84 83 81 79 70 71 64 60 59 64 63 58 68 72 76 75 75 79 83 83 85 90 94 95 85 69 82 72
55 58 58 65 72 72 66 67 71 70 71 67 62 63 62 65 69 77 80 81 84 87 90 90 92 91 92 94 95 96 96 83
50 49 50 51 54 56 57 63 67 78 77 65 62 65 64 67 72 78 82 85 88 90 88 96 96 98 96 82 91 94 97 88
54 51 49 50 52 57 68 71 75 80 69 62 61 67 72 70 72 70 75 83 87 87 90 90 92 94 96 96 93 92 93 91
56 53 55 56 58 63 71 69 74 65 62 65 65 69 74 73 67 75 82 83 85 87 88 86 89 92 94 95 95 91 94 95
61 62 66 66 67 68 68 64 60 59 58 61 60 70 78 76 79 82 83 82 82 84 85 88 91 92 93 95 96 97 98 90
55 57 58 59 60 62 64 58 64 62 61 65 75 82 82 82 82 76 74 76 81 86 86 88 88 90 88 92 96 96 97 97

GFSFLT2_sfc_rhum_015.txt.gz
RH
81 77 85 97 96 96 94 92 91 90 88 86 84 81 77 76 75 72 69 74 75 75 76 78 76 79 80 84 83 70 37 34
79 79 76 80 80 96 94 92 91 89 87 85 83 79 77 76 75 76 77 77 76 77 81 82 83 85 84 85 85 68 39 34
80 81 83 86 79 80 87 89 89 88 82 83 79 60 60 61 77 81 82 82 84 84 84 86 87 81 82 85 81 43 45 37
85 87 88 86 72 75 74 67 64 66 66 70 64 71 67 66 76 85 84 86 83 82 83 84 72 50 45 60 45 52 46 45
82 86 88 83 72 71 66 66 67 68 74 74 73 72 74 67 65 57 61 66 51 55 54 50 58 53 50 52 49 47 44 41
85 85 84 82 70 70 69 65 68 69 71 77 76 70 70 66 52 55 59 56 57 54 50 59 56 53 52 52 49 41 35 34
77 79 78 77 77 72 72 74 73 76 74 77 71 66 65 60 61 55 54 51 50 50 50 49 49 46 46 45 41 42 40 33
73 75 73 70 72 77 84 88 88 92 93 89 83 68 69 61 55 49 49 50 50 48 51 45 44 42 42 45 42 40 43 43
77 82 78 79 80 87 90 86 86 90 88 84 80 72 62 56 52 52 54 52 52 49 48 45 43 38 39 36 37 39 40 50
80 80 83 86 90 94 87 86 87 78 83 77 66 60 60 61 54 56 54 50 52 48 44 40 42 41 40 36 38 33 42 55
83 85 83 88 95 88 86 81 82 63 66 60 60 57 60 56 52 55 56 49 50 45 45 47 44 40 30 33 32 28 42 44
83 83 82 84 85 74 74 75 67 58 54 48 48 46 52 50 50 55 49 47 49 46 48 44 46 47 30 33 33 35 46 48
77 83 74 67 56 68 67 68 60 51 44 49 49 47 48 52 48 50 50 49 53 52 46 47 39 50 40 34 33 47 52 43
74 72 59 51 57 59 58 57 54 46 46 50 48 51 49 48 54 50 52 48 56 57 53 44 47 59 47 40 34 31 37 44
55 54 54 54 57 52 52 56 55 50 44 43 47 49 46 50 54 52 53 54 55 62 62 61 51 53 67 50 45 40 49 39
50 49 46 47 50 48 53 48 49 53 46 43 42 50 48 45 51 56 61 60 64 61 57 58 52 47 43 49 53 55 50 47
52 52 50 52 54 56 53 57 52 46 47 52 53 53 53 51 54 60 63 59 64 63 57 52 46 43 43 45 47 45 46 59
56 48 48 50 50 53 56 54 50 46 50 52 52 53 53 58 57 62 63 62 59 57 59 53 51 48 44 45 42 44 43 51
49 45 47 48 50 50 52 52 53 55 57 56 58 54 55 58 65 67 60 58 58 60 53 54 53 45 46 41 46 47 50 50
48 46 49 51 54 53 56 57 52 46 47 48 49 52 56 64 66 62 60 58 54 56 54 55 56 55 56 58 53 51 60 63

GFSFLT2_sfc_rhum_018.txt.gz
RH
63 60 73 97 96 94 92 91 89 88 86 84 80 78 79 74 72 69 68 69 71 72 75 77 78 80 81 82 83 67 29 24
67 60 59 65 67 94 92 90 88 86 85 83 81 77 76 74 73 75 74 74 75 76 78 80 81 82 81 83 82 78 26 24
59 51 56 56 52 70 86 88 87 85 78 80 74 40 44 47 77 80 80 80 81 80 80 82 81 78 72 72 77 24 28 24
70 70 76 63 48 55 50 44 40 44 45 51 42 52 49 50 64 78 77 76 70 72 75 75 66 27 26 46 26 32 26 27
71 80 83 56 51 44 37 39 45 50 57 54 54 53 52 43 38 36 42 55 34 39 36 30 40 36 31 34 31 28 25 24
72 77 71 60 43 39 42 42 48 49 52 62 60 50 52 47 36 40 44 38 40 36 32 41 40 36 37 36 35 30 25 23
58 58 60 57 54 49 52 54 50 56 57 63 57 60 58 46 46 40 39 35 35 35 34 33 33 32 34 34 32 33 33 26
55 51 53 50 54 60 63 67 74 76 79 75 79 82 72 49 45 39 36 35 34 34 35 31 30 31 30 34 34 32 31 34
53 57 53 60 67 80 77 82 82 83 85 84 89 84 61 52 52 51 43 40 39 35 34 32 31 28 30 30 30 31 30 34
58 63 63 77 88 90 96 84 79 73 78 78 68 58 54 56 42 42 44 39 35 35 34 31 31 31 32 28 28 27 27 33
63 68 70 73 83 94 78 77 80 70 60 49 54 50 48 42 40 43 43 36 38 35 34 37 33 33 30 27 28 28 27 24
66 70 73 79 79 68 56 54 44 41 38 37 38 39 43 39 40 45 38 35 35 37 42 37 38 38 32 28 31 27 26 30
65 70 72 68 52 48 46 47 42 39 35 40 40 38 39 40 35 37 39 39 45 45 42 42 38 38 40 30 27 26 34 31
62 59 58 46 40 40 40 41 38 36 37 41 38 38 35 34 40 38 42 40 44 48 49 43 36 40 49 43 34 28 23 29
53 49 43 42 44 40 41 42 39 36 34 33 34 39 36 38 41 42 43 42 39 48 48 50 44 39 42 44 45 38 34 29
41 41 42 40 36 37 42 36 37 40 36 35 34 42 42 38 40 44 46 44 47 47 41 46 43 40 35 29 40 42 43 42
42 38 36 38 40 42 39 41 38 36 37 42 42 40 41 40 41 44 48 46 48 52 48 45 42 44 40 37 36 33 34 35
42 38 38 38 39 41 43 43 38 35 38 34 28 27 26 30 35 48 49 49 53 47 46 51 50 42 34 34 34 34 33 34
40 37 38 38 38 35 37 38 37 30 28 25 28 24 25 28 34 42 47 51 49 49 54 53 42 39 39 34 33 34 32 34
39 37 35 33 33 33 30 27 26 22 26 28 28 29 30 36 41 44 49 51 52 54 51 44 43 42 42 40 35 34 32 33

GFSFLT2_sfc_rhum_021.txt.gz
RH
69 63 75 96 94 93 92 90 89 87 84 81 75 75 74 70 69 68 68 69 70 72 74 76 76 77 77 79 80 80 46 23
66 65 59 69 74 93 91 88 87 86 80 80 78 76 72 70 73 74 74 74 76 77 77 78 77 77 76 70 75 77 26 22
60 49 54 55 60 77 85 87 85 83 75 76 71 39 45 49 74 75 75 76 74 71 74 76 76 75 69 61 68 25 26 22
58 61 54 50 38 52 44 41 37 43 42 45 39 46 45 45 61 71 70 65 65 64 66 71 72 28 27 49 26 29 23 23
70 77 67 46 43 36 32 35 42 46 51 47 49 45 45 42 37 36 40 54 35 40 38 31 38 35 32 34 32 30 23 22
71 73 59 46 36 32 35 36 42 41 45 53 53 51 48 45 37 37 40 34 40 36 33 39 36 34 33 35 33 29 26 26
58 55 51 49 44 45 48 48 57 67 56 64 59 55 63 68 64 48 40 37 36 37 35 34 36 32 32 31 33 32 31 27
45 44 47 42 49 56 60 66 67 72 76 85 80 70 72 67 66 53 45 41 42 37 38 35 33 31 31 30 32 31 31 33
44 48 46 51 61 61 67 70 69 73 80 80 81 82 76 64 63 56 45 43 42 36 36 32 29 27 31 29 28 28 27 29
46 44 52 60 66 76 89 88 72 74 75 79 73 69 57 60 52 47 48 43 36 37 34 34 34 32 32 30 28 26 28 30
53 55 62 66 72 86 91 71 68 67 57 49 52 48 46 43 40 43 45 36 37 37 37 40 38 37 32 29 32 27 29 21
54 60 65 74 77 67 55 57 53 45 39 36 38 39 41 39 38 45 41 37 39 43 49 43 41 36 26 32 35 26 25 26
66 71 73 72 55 53 52 47 42 38 34 38 38 37 37 40 35 37 40 42 45 46 45 48 36 34 34 36 34 36 34 26
63 60 63 54 43 40 39 39 34 32 35 40 36 37 36 34 43 42 42 42 44 43 44 44 38 36 40 40 41 32 26 28
55 53 49 40 39 38 38 37 38 34 35 33 36 39 37 39 41 42 43 40 36 42 43 48 42 38 39 39 43 40 37 31
43 42 39 41 35 31 34 31 34 38 36 36 35 38 40 37 36 40 42 40 43 42 33 45 46 42 39 33 40 42 43 40
41 39 33 33 35 38 36 39 38 35 36 36 34 30 27 25 26 32 42 42 44 46 48 47 43 47 43 45 38 35 34 34
40 34 34 36 38 41 43 41 36 32 30 26 24 23 22 25 25 32 36 41 45 44 46 48 52 50 40 39 37 34 33 34
38 35 37 38 37 35 36 35 30 29 26 24 27 24 25 28 33 37 36 38 41 44 50 56 60 46 43 39 34 35 35 36
36 35 35 33 33 30 29 30 32 27 26 28 27 27 28 31 34 38 42 40 42 58 52 62 56 52 47 44 42 39 38 38

GFSFLT2_sfc_rhum_024.txt.gz
RH
97 87 81 94 94 92 91 89 88 87 83 81 81 81 79 77 78 77 76 77 77 77 79 80 78 77 74 70 74 74 65 46
89 80 86 89 85 90 89 88 88 86 81 79 79 77 76 76 79 78 76 76 76 76 78 76 77 75 73 72 71 68 44 46
83 80 79 83 81 83 86 86 86 82 78 76 78 64 69 70 78 76 77 77 75 70 70 71 76 77 70 74 71 42 41 46
81 79 79 77 58 74 74 68 67 65 60 69 67 67 61 55 68 73 72 68 67 69 69 72 74 50 53 62 48 48 43 50
78 80 73 58 61 64 55 59 67 72 69 66 69 65 69 67 75 65 76 73 60 66 60 53 51 55 53 56 52 46 49 48
75 75 72 65 54 56 59 59 69 68 71 68 77 83 77 78 78 72 67 59 59 60 61 57 57 49 50 50 48 51 49 47
73 71 67 62 66 69 73 80 89 91 88 83 85 84 85 82 81 75 72 65 66 65 60 56 54 50 50 47 45 46 47 49
63 59 66 60 68 79 83 78 82 86 87 90 90 90 90 77 80 80 74 67 63 63 61 58 56 50 47 49 48 45 45 49
57 64 61 69 75 74 75 76 76 85 87 86 88 90 84 80 79 76 73 67 62 61 58 55 54 46 48 47 46 43 43 45
55 50 68 75 76 82 92 95 84 88 89 88 83 79 72 74 71 73 72 70 62 61 62 61 60 59 59 54 52 46 39 39
57 65 72 78 82 90 92 83 77 77 75 72 68 62 60 66 70 72 67 65 64 63 68 69 67 63 49 45 55 50 47 32
63 72 81 76 86 90 75 73 72 68 63 58 56 56 57 62 68 64 62 65 67 71 71 68 70 62 36 37 55 56 47 47
69 84 89 77 86 82 69 73 64 62 51 55 54 53 51 56 64 64 64 66 69 64 65 66 67 63 60 57 56 50 51 43
77 80 84 73 71 66 60 57 59 52 56 56 53 54 52 51 61 62 65 65 64 66 67 70 67 66 68 61 64 55 49 46
70 70 70 66 62 51 52 51 57 53 56 56 55 53 51 53 56 60 63 63 65 68 66 67 71 66 62 69 70 70 60 56
65 63 58 52 53 54 56 51 54 58 59 59 54 52 50 43 45 54 61 66 68 69 53 70 68 70 65 52 64 66 64 58
60 54 49 48 49 55 57 59 60 58 58 51 46 48 42 39 44 56 59 62 66 69 71 68 68 70 72 68 63 63 58 61
59 47 43 48 53 59 62 61 55 51 50 50 44 44 44 47 46 56 59 62 64 69 68 66 70 79 77 66 63 62 57 62
52 43 46 52 55 53 55 50 52 54 50 47 44 46 48 51 52 57 60 63 64 68 72 70 77 84 74 67 62 62 58 59
46 43 46 46 48 46 47 47 50 49 48 42 46 47 50 49 54 55 57 59 64 67 74 76 80 84 75 74 68 68 61 61